sat.trackr.live / text

‹ back to catalog

STARLINK-37990

NORAD 69683 · 2026-145G

PAYLOAD ACTIVE UNKNOWN

§ Identity

Operator
Country
US
Launch date
2026-06-25
Launch site
AFWTR
Launch vehicle
Mass (kg)
RCS (m²)

Purposes: comms

External: N2YO · Heavens-Above · Gunter

§ Orbital elements

Epoch: 2026-09-20T03:05:17.236608Z

Period
93.91 min
Inclination
97.2853°
Eccentricity
0.0001927
Mean motion
15.33441464 rev/d
Perigee alt
464.2 km
Apogee alt
466.9 km
Semi-major
6,843.7 km
B*
1.6884e-4
RAAN
109.7583°
Arg perigee
86.9557°
Mean anomaly
273.1907°
Rev number
1,348

§ Raw data

STARLINK-379901 69683U 26145G   26263.12867172  .00005379  00000+0  16884-3 0  99962 69683  97.2853 109.7583 0001927  86.9557 273.1907 15.33441464 13480

JSON: /api/v1/satellites/69683 · /tle

For live sub-satellite position, see the globe view (requires WebGL).

§ Visibility from observer

Set your observer location to see the next 7 days of passes ≥ 10°. The values pass through the URL so the page stays shareable.

No JS? Fill the form by hand. The geolocation button needs JavaScript.